Home > Weather > Kuala Lumpur > Past weeks

Flag for Malaysia Weather for the Past 2 Weeks in Kuala Lumpur, Malaysia

Now
84 °F

Thunderstorms. More clouds than sun.


Feels Like: 96 °F
Forecast: 79 / 91 °F
Wind: 3 mph from Southeast

Location: Sultan Abdul Aziz Shah-Subang

Current Time: May 4, 2016 at 6:47:09 PM

Latest Report: May 4, 2016 at 6:00 PM


Visibility: 3 mi

Pressure: 29.71 "Hg

Humidity: 84%

Dew Point: 79 °F

Location of Kuala LumpurLocation

Historic Weather in Kuala Lumpur — Graph

°F

Kuala Lumpur Temperature Yesterday

Maximum temperature yesterday: 97 °F (at 4:00 PM)
Minimum temperature yesterday: 77 °F (at 4:00 AM)
Average temperature yesterday: 83 °F

High & Low Weather Summary for the Past Weeks

 TemperatureHumidityPressure
High97 °F (Apr 20, 2:00 PM)100% (Apr 20, 8:00 AM)29.89 "Hg (Apr 20, 8:00 AM)
Low77 °F (Apr 26, 5:00 PM)44% (Apr 20, 2:00 PM)29.68 "Hg (May 4, 5:00 PM)
Average84 °F81%29.80 "Hg
* Reported Apr 19 5:00 PM — May 4 5:00 PM, Kuala Lumpur, Weather by CustomWeather, © 2016

Note: Actual official high and low records may vary slightly from our data, if they occured in-between our weather recording intervals... More about our weather records

Advertising

Kuala Lumpur Weather History for the Previous 24 Hours

Scroll right to see more
 ConditionsComfort  
Time TempWeatherWind HumidityBarometerVisibility
5:00 PM
Wed, May 4
84 °FBroken clouds.3 mph89%29.68 "Hg6 mi
4:00 PM84 °FThunderstorms. More clouds than sun.7 mph79%29.71 "Hg4 mi
3:00 PM91 °FThunderstorms. Partly sunny.12 mph67%29.74 "Hg6 mi
2:00 PM93 °FBroken clouds.6 mph63%29.74 "HgN/A
1:00 PM93 °FBroken clouds.2 mph59%29.77 "HgN/A
12:00 PM93 °FBroken clouds.2 mph59%29.80 "Hg5 mi
11:00 AM91 °FBroken clouds.3 mph63%29.83 "Hg4 mi
10:00 AM88 °FBroken clouds.3 mph75%29.83 "Hg3 mi
9:00 AM84 °FBroken clouds.2 mph84%29.83 "Hg3 mi
8:00 AM81 °FPartly cloudy.No wind94%29.80 "Hg4 mi
7:00 AM79 °FPartly cloudy.No wind94%29.77 "Hg3 mi
6:00 AM79 °FPassing clouds.No wind94%29.77 "Hg3 mi
5:00 AM81 °FPartly cloudy.No wind89%29.77 "Hg3 mi
4:00 AM79 °FPassing clouds.No wind94%29.80 "Hg4 mi
3:00 AM79 °FPartly cloudy.No wind94%29.77 "Hg4 mi
2:00 AM79 °FPassing clouds.No wind94%29.80 "Hg4 mi
1:00 AM79 °FPassing clouds.No wind94%29.83 "Hg5 mi
12:00 AM79 °FPassing clouds.No wind94%29.86 "Hg5 mi
11:00 PM
Tue, May 3
79 °FPartly cloudy.No wind94%29.83 "Hg6 mi
10:00 PM79 °FPassing clouds.1 mph89%29.83 "Hg6 mi
9:00 PM79 °FPartly cloudy.1 mph89%29.80 "Hg5 mi
8:00 PM79 °FBroken clouds.6 mph89%29.77 "Hg4 mi
7:00 PM77 °FThunderstorms. Broken clouds.5 mph94%29.77 "Hg5 mi
6:00 PM88 °FThunderstorms. Broken clouds.12 mph75%29.71 "Hg5 mi
Weather by CustomWeather, © 2016

See weather overviewHow to use our weather pages